| time (UTC) | temp F | wind direction | speed MPH | gust MPH | rain 1hr in | rain 24hr in | rain mn in | humidity % | barometer mb |
| 20260505210053 | 76 | 318 | 7.0 | 16.0 | 0.00 | 0.00 | 0.00 | 25 | 1014.7 |
| 20260505204547 | 75 | 338 | 1.0 | 11.0 | 0.00 | 0.00 | 0.00 | 28 | 1014.8 |
| 20260505203050 | 75 | 245 | 3.0 | 10.0 | 0.00 | 0.00 | 0.00 | 27 | 1014.8 |
| 20260505201553 | 75 | 281 | 3.0 | 10.0 | 0.00 | 0.00 | 0.00 | 29 | 1015.0 |
| 20260505200045 | 76 | 318 | 3.0 | 12.0 | 0.00 | 0.00 | 0.00 | 27 | 1015.1 |
| 20260505194545 | 74 | 283 | 3.0 | 13.0 | 0.00 | 0.00 | 0.00 | 29 | 1015.2 |
| 20260505193048 | 74 | 314 | 2.0 | 8.0 | 0.00 | 0.00 | 0.00 | 29 | 1015.3 |
| 20260505191549 | 73 | 326 | 4.0 | 9.0 | 0.00 | 0.00 | 0.00 | 31 | 1015.4 |
| 20260505190044 | 72 | 314 | 1.0 | 10.0 | 0.00 | 0.00 | 0.00 | 33 | 1015.4 |
| 20260505184537 | 71 | 342 | 3.0 | 13.0 | 0.00 | 0.00 | 0.00 | 34 | 1015.5 |
| 20260505183047 | 69 | 275 | 2.0 | 10.0 | 0.00 | 0.00 | 0.00 | 37 | 1015.5 |
| 20260505181532 | 68 | 314 | 3.0 | 7.0 | 0.00 | 0.00 | 0.00 | 38 | 1015.5 |
| 20260505180036 | 67 | 273 | 1.0 | 6.0 | 0.00 | 0.00 | 0.00 | 41 | 1015.5 |
| 20260505174536 | 67 | 271 | 1.0 | 6.0 | 0.00 | 0.00 | 0.00 | 40 | 1015.5 |
| 20260505173036 | 66 | 327 | 2.0 | 8.0 | 0.00 | 0.00 | 0.00 | 41 | 1015.6 |
| 20260505171530 | 65 | 309 | 0.0 | 7.0 | 0.00 | 0.00 | 0.00 | 41 | 1015.5 |
| 20260505170023 | 64 | 283 | 0.0 | 5.0 | 0.00 | 0.00 | 0.00 | 43 | 1015.5 |
| 20260505164532 | 63 | 297 | 0.0 | 6.0 | 0.00 | 0.00 | 0.00 | 46 | 1015.5 |
| 20260505163022 | 61 | 259 | 3.0 | 7.0 | 0.00 | 0.00 | 0.00 | 47 | 1015.5 |
| 20260505161516 | 60 | 304 | 1.0 | 8.0 | 0.00 | 0.00 | 0.00 | 48 | 1015.5 |
| 20260505153007 | 57 | 338 | 0.0 | 4.0 | 0.00 | 0.00 | 0.00 | 56 | 1015.6 |
| 20260505151505 | 56 | 338 | 0.0 | 0.0 | 0.00 | 0.00 | 0.00 | 58 | 1015.5 |
| 20260505150116 | 53 | 338 | 0.0 | 0.0 | 0.00 | 0.00 | 0.00 | 58 | 1015.5 |
| 20260505140104 | 44 | 338 | 0.0 | 4.0 | 0.00 | 0.00 | 0.00 | 66 | 1014.9 |
| 20260505124543 | 39 | 338 | 0.0 | 0.0 | 0.00 | 0.00 | 0.00 | 71 | 1014.3 |
| 20260505123104 | 39 | 338 | 0.0 | 4.0 | 0.00 | 0.00 | 0.00 | 71 | 1014.2 |
| 20260505121541 | 39 | 337 | 1.0 | 4.0 | 0.00 | 0.00 | 0.00 | 71 | 1014.2 |
| 20260505120047 | 40 | 329 | 0.0 | 0.0 | 0.00 | 0.00 | 0.00 | 69 | 1014.1 |
| 20260505114546 | 40 | 329 | 0.0 | 0.0 | 0.00 | 0.00 | 0.00 | 68 | 1014.0 |
| 20260505113033 | 40 | 329 | 1.0 | 4.0 | 0.00 | 0.00 | 0.00 | 69 | 1014.1 |
| 20260505111531 | 41 | 328 | 0.0 | 0.0 | 0.00 | 0.00 | 0.00 | 67 | 1014.1 |
| 20260505101524 | 42 | 328 | 0.0 | 3.0 | 0.00 | 0.00 | 0.00 | 59 | 1013.7 |
| 20260505100030 | 41 | 328 | 0.0 | 0.0 | 0.00 | 0.00 | 0.00 | 57 | 1013.6 |
| 20260505094519 | 42 | 328 | 0.0 | 0.0 | 0.00 | 0.00 | 0.00 | 55 | 1013.6 |
| 20260505093017 | 43 | 328 | 0.0 | 0.0 | 0.00 | 0.00 | 0.00 | 54 | 1013.7 |
| 20260505091522 | 43 | 328 | 0.0 | 0.0 | 0.00 | 0.00 | 0.00 | 53 | 1013.7 |
| 20260505090012 | 44 | 328 | 0.0 | 0.0 | 0.00 | 0.00 | 0.00 | 53 | 1013.6 |
| 20260505084514 | 44 | 328 | 0.0 | 0.0 | 0.00 | 0.00 | 0.00 | 50 | 1013.6 |
| 20260505083010 | 46 | 328 | 0.0 | 0.0 | 0.00 | 0.00 | 0.00 | 48 | 1013.7 |
| 20260505081504 | 48 | 328 | 0.0 | 0.0 | 0.00 | 0.00 | 0.00 | 46 | 1013.6 |
| 20260505080101 | 49 | 328 | 0.0 | 0.0 | 0.00 | 0.00 | 0.00 | 44 | 1013.6 |
| 20260505074556 | 51 | 328 | 0.0 | 2.0 | 0.00 | 0.00 | 0.00 | 42 | 1013.7 |
| 20260505073059 | 51 | 328 | 0.0 | 0.0 | 0.00 | 0.00 | 0.00 | 42 | 1013.6 |
| 20260505071550 | 52 | 328 | 0.0 | 0.0 | 0.00 | 0.00 | 0.00 | 40 | 1013.5 |
| 20260505070053 | 53 | 328 | 0.0 | 0.0 | 0.00 | 0.00 | 0.00 | 38 | 1013.4 |
| 20260505064545 | 55 | 328 | 0.0 | 0.0 | 0.00 | 0.00 | 0.00 | 35 | 1013.3 |
| 20260505063046 | 56 | 328 | 0.0 | 4.0 | 0.00 | 0.00 | 0.00 | 34 | 1013.2 |
| 20260505061545 | 58 | 328 | 0.0 | 3.0 | 0.00 | 0.00 | 0.00 | 32 | 1013.2 |
| 20260505060045 | 59 | 328 | 1.0 | 7.0 | 0.00 | 0.00 | 0.00 | 31 | 1013.2 |
| 20260505054544 | 59 | 328 | 1.0 | 7.0 | 0.00 | 0.00 | 0.00 | 30 | 1013.2 |
| 20260505053043 | 59 | 330 | 2.0 | 9.0 | 0.00 | 0.00 | 0.00 | 30 | 1013.2 |
| 20260505051543 | 60 | 349 | 2.0 | 9.0 | 0.00 | 0.00 | 0.00 | 30 | 1013.1 |
| 20260505050119 | 60 | 330 | 4.0 | 12.0 | 0.00 | 0.00 | 0.00 | 31 | 1013.1 |
| 20260505041552 | 63 | 327 | 1.0 | 6.0 | 0.00 | 0.00 | 0.00 | 28 | 1012.7 |
| 20260505040052 | 64 | 323 | 3.0 | 15.0 | 0.00 | 0.00 | 0.00 | 26 | 1012.3 |
| 20260505034541 | 65 | 292 | 8.0 | 19.0 | 0.00 | 0.00 | 0.00 | 25 | 1012.0 |
| 20260505033045 | 66 | 314 | 4.0 | 14.0 | 0.00 | 0.00 | 0.00 | 24 | 1011.8 |
| 20260505031545 | 67 | 312 | 4.0 | 17.0 | 0.00 | 0.00 | 0.00 | 23 | 1011.5 |
| 20260505030041 | 68 | 321 | 8.0 | 16.0 | 0.00 | 0.00 | 0.00 | 22 | 1011.2 |
| 20260505024537 | 69 | 334 | 4.0 | 22.0 | 0.00 | 0.00 | 0.00 | 22 | 1011.0 |
| 20260505023043 | 71 | 314 | 7.0 | 22.0 | 0.00 | 0.00 | 0.00 | 22 | 1010.9 |
| 20260505021541 | 72 | 287 | 7.0 | 28.0 | 0.00 | 0.00 | 0.00 | 22 | 1010.8 |
| 20260505020037 | 73 | 322 | 4.0 | 19.0 | 0.00 | 0.00 | 0.00 | 21 | 1010.5 |
| 20260505014547 | 75 | 318 | 3.0 | 17.0 | 0.00 | 0.00 | 0.00 | 19 | 1010.6 |
| 20260505013034 | 76 | 330 | 6.0 | 15.0 | 0.00 | 0.00 | 0.00 | 19 | 1010.7 |
| 20260505011533 | 76 | 324 | 4.0 | 11.0 | 0.00 | 0.00 | 0.00 | 19 | 1010.8 |
| 20260505010031 | 74 | 319 | 6.0 | 14.0 | 0.00 | 0.00 | 0.00 | 21 | 1010.8 |
| 20260505004536 | 74 | 326 | 3.0 | 14.0 | 0.00 | 0.00 | 0.00 | 21 | 1011.0 |
| 20260505003030 | 77 | 306 | 10.0 | 19.0 | 0.00 | 0.00 | 0.00 | 19 | 1010.9 |
| 20260505001528 | 77 | 295 | 4.0 | 13.0 | 0.00 | 0.00 | 0.00 | 18 | 1010.9 |
| 20260505000033 | 80 | 311 | 9.0 | 16.0 | 0.00 | 0.00 | 0.00 | 17 | 1010.9 |
| 20260504234525 | 79 | 317 | 2.0 | 15.0 | 0.00 | 0.00 | 0.00 | 17 | 1011.0 |
| 20260504233025 | 80 | 320 | 10.0 | 20.0 | 0.00 | 0.00 | 0.00 | 15 | 1011.2 |
| 20260504231525 | 80 | 347 | 3.0 | 17.0 | 0.00 | 0.00 | 0.00 | 14 | 1011.1 |
| 20260504230023 | 79 | 330 | 7.0 | 18.0 | 0.00 | 0.00 | 0.00 | 15 | 1011.4 |
| 20260504224520 | 79 | 316 | 7.0 | 23.0 | 0.00 | 0.00 | 0.00 | 15 | 1011.4 |
| 20260504223020 | 80 | 331 | 5.0 | 22.0 | 0.00 | 0.00 | 0.00 | 15 | 1011.6 |
| 20260504221521 | 79 | 319 | 7.0 | 21.0 | 0.00 | 0.00 | 0.00 | 15 | 1011.7 |
| 20260504220017 | 79 | 290 | 7.0 | 18.0 | 0.00 | 0.00 | 0.00 | 16 | 1011.9 |
| 20260504214516 | 79 | 302 | 1.0 | 17.0 | 0.00 | 0.00 | 0.00 | 17 | 1011.9 |
| 20260504213035 | 79 | 323 | 7.0 | 19.0 | 0.00 | 0.00 | 0.00 | 17 | 1011.9 |
| 20260504211517 | 78 | 331 | 8.0 | 25.0 | 0.00 | 0.00 | 0.00 | 18 | 1012.2 |